Miscellaneous Local Product
Issued by NWS North Platte, NE

Home | Current Version | Previous Version | Text Only | Print | Product List | Glossary On
Versions: 1 2 3 4 5 6 7 8 9 10 11 12 13 14 15 16 17 18 19 20 21 22 23 24 25 26 27 28 29 30 31 32 33 34 35 36 37 38 39 40 41 42 43 44 45 46 47 48 49 50
000
AXUS43 KLBF 101710
MISLBF


WESTERN AND NORTH CENTRAL NEBRASKA HOURLY WEATHER ROUNDUP
NATIONAL WEATHER SERVICE NORTH PLATTE NE
1200 PM CDT THU JUL 10 2014

***STATIONS NOT REPORTING VARIABLES SUCH AS SKY/WEATHER OR
PRESSURE ARE PROVIDED BY THE NEBRASKA DEPARTMENT OF
ROADS...RAWS...AND APRS NETWORKS...AND ARE NOT UNDER
NATIONAL WEATHER SERVICE QUALITY CONTROL***

...OBSERVATIONS IN AND NEAR THE EASTERN PANHANDLE OF NEBRASKA...

CITY           SKY/WX    TMP DP  RH WIND       PRES   REMARKS
PINE RIDGE     SUNNY     79  63  57 S14G20    29.89S
CHADRON        SUNNY     84  60  44 SW14G22   29.87F
ALLIANCE       SUNNY     83  59  44 S16       29.94F
SIDNEY         SUNNY     85  56  37 SW15G23   30.00F
WHITECLAY        N/A     79  61  53 S16         N/A
RUSHVILLE        N/A     83  59  43 SW21        N/A
GORDON           N/A     84  62  47 S23         N/A
CRESCENT LAKE    N/A     82  57  42 S13G20      N/A
LISCO            N/A     88  55  31 S8          N/A
BIG SPRINGS      N/A     77  65  66 S6          N/A
$$

...OBSERVATIONS IN NORTH CENTRAL NEBRASKA...

CITY           SKY/WX    TMP DP  RH WIND       PRES   REMARKS
VALENTINE      PTSUNNY   77  64  64 S20G25    29.90F
THEDFORD       MOSUNNY   79  64  60 S17G23    29.95F
AINSWORTH      PTSUNNY   75  65  71 S17       29.92F
O`NEILL        MOSUNNY   78  64  62 S14       29.97S
ORD            PTSUNNY   77  67  71 S7        29.98R
BROKEN BOW     MOSUNNY   79  68  69 S13G22    29.98F
SPRINGVIEW       N/A     75  66  74 S10G17      N/A
ROSE             N/A     79  71  75 SE16        N/A
NEWPORT          N/A     78  68  70 S14         N/A
SARGENT          N/A     77  68  74 S3          N/A
COMSTOCK         N/A     83  72  69 S8          N/A
CHAMBERS         N/A     81  68  63 S9          N/A
$$

...OBSERVATIONS IN SOUTHWEST NEBRASKA AND FAR NORTHEAST COLORADO...

CITY           SKY/WX    TMP DP  RH WIND       PRES   REMARKS
WRAY           FAIR      86  57  38 S14G20    29.99F
HOLYOKE        FAIR      82  61  47 S12G18    29.99F
IMPERIAL       SUNNY     80  62  54 S12G20    29.98S
OGALLALA       SUNNY     79  62  56 S13       29.97F
NORTH PLATTE   SUNNY     79  64  60 SW14G22   29.97S
MCCOOK         SUNNY     82  66  58 S16       29.97
LEXINGTON      SUNNY     81  67  62 S16G22    29.98
PAXTON           N/A     74  65  74 S12         N/A
SUTHERLAND       N/A     81  70  69 SW10        N/A
BRADY            N/A     80  67  63 CALM        N/A
GOTHENBURG       N/A     76  60  58 S14         N/A
CALLAWAY         N/A     75  69  83 S20         N/A
$$

...NORTH PLATTE AREA...

CITY           SKY/WX    TMP DP  RH WIND       PRES   REMARKS
AIRPORT        SUNNY     79  64  60 SW14G22   29.97S
INDIAN HILLS     N/A     81  66  60 S10G18      N/A
$$

...SOME WEATHER OBSERVATIONS FROM AROUND THE REGION...

CITY           SKY/WX    TMP DP  RH WIND       PRES   REMARKS
DENVER         MOSUNNY   88  41  19 NE5       30.07S
LARAMIE        SUNNY     79  43  27 W15       30.20R
CHEYENNE       PTSUNNY   86  43  22 W15G23    30.10S
SCOTTSBLUFF    SUNNY     82  58  43 NW5       29.95F
RAPID CITY     SUNNY     77  64  64 CALM      29.90R
PIERRE         CLOUDY    73  64  73 S13       29.83F
WINNER         FAIR      79  65  62 S15G23    29.89F
SIOUX FALLS    PTSUNNY   81  61  50 S17G23    29.97F
OMAHA          SUNNY     81  63  54 SE17      30.03F
GRAND ISLAND   PTSUNNY   76  67  73 S16       30.02S
KANSAS CITY    PTSUNNY   79  65  62 S10       30.09F
WICHITA        PTSUNNY   78  66  66 SE8       30.02S
HAYS           SUNNY     79  64  61 S18       30.01R
LIBERAL        SUNNY     90  64  43 SE8G17    30.00F HX  91
GOODLAND       SUNNY     77  64  64 S16       30.01F
$$



USA.gov is the U.S. government's official web portal to all federal, state and local government web resources and services.